Home   Weather   Firozpur   Past weeks

Flag for India Past Weather in Firozpur, Punjab, India — Yesterday and Last 2 Weeks

Now
81 °F

Passing clouds.


Feels Like: 86 °F
Forecast: 81 / 94 °F
Wind: 5 mph from Northeast

Location: Lahore Airport

Current Time: Aug 21, 2017 at 4:51:12 am

Latest Report: Aug 21, 2017 at 3:55 am


Visibility: 2 mi

Pressure: 29.62 "Hg

Humidity: 84%

Dew Point: 75 °F

Location of FirozpurLocation

Past Weather in Firozpur — Graph

°F

Firozpur Temperature Yesterday

Maximum temperature yesterday: 91 °F (at 4:25 pm)
Minimum temperature yesterday: 81 °F (at 1:25 am)
Average temperature yesterday: 85 °F

High & Low Weather Summary for the Past Weeks

 TemperatureHumidityPressure
High104 °F (Aug 11, 3:25 pm)100% (Aug 6, 3:00 pm)29.77 "Hg (Aug 6, 3:00 pm)
Low73 °F (Aug 14, 5:25 am)36% (Aug 15, 3:00 pm)29.39 "Hg (Aug 6, 5:15 am)
Average90 °F67%29.57 "Hg
* Reported Aug 6 2:55 am — Aug 21 3:25 am, Firozpur. Weather by CustomWeather, © 2017

Note: Actual official high and low records may vary slightly from our data, if they occured in-between our weather recording intervals... More about our weather records

Advertising

Firozpur Weather History for the Previous 24 Hours

Scroll right to see more
 ConditionsComfort  
Time TempWeatherWind HumidityBarometerVisibility
3:25 am
Mon, Aug 21
81 °FPassing clouds.5 mph79%29.62 "Hg2 mi
2:55 am81 °FClear.No wind84%29.62 "Hg2 mi
2:25 am81 °FClear.3 mph79%29.62 "Hg2 mi
1:55 am81 °FClear.3 mph79%29.65 "Hg2 mi
1:25 am81 °FClear.5 mph79%29.65 "Hg2 mi
12:55 am82 °FClear.3 mph79%29.65 "Hg2 mi
12:25 am82 °FClear.3 mph79%29.65 "Hg2 mi
11:55 pm
Sun, Aug 20
82 °FPassing clouds.5 mph79%29.65 "Hg2 mi
11:25 pm84 °FPassing clouds.5 mph74%29.65 "Hg2 mi
10:55 pm84 °FPassing clouds.5 mph74%29.65 "Hg2 mi
10:25 pm84 °FPassing clouds.5 mph74%29.62 "Hg2 mi
9:55 pm84 °FPassing clouds.7 mph74%29.62 "Hg3 mi
9:25 pm84 °FPassing clouds.7 mph74%29.62 "Hg3 mi
8:55 pm84 °FPassing clouds.6 mph70%29.62 "Hg3 mi
8:30 pm84 °FPassing clouds.7 mph70%29.62 "Hg3 mi
8:00 pm86 °FPassing clouds.8 mph70%29.59 "Hg4 mi
7:25 pm88 °FPassing clouds.9 mph66%29.59 "Hg4 mi
7:00 pm90 °FScattered clouds.8 mph63%29.59 "Hg4 mi
6:30 pm90 °FScattered clouds.7 mph63%29.59 "Hg4 mi
6:00 pm90 °FScattered clouds.7 mph59%29.59 "Hg4 mi
5:30 pm91 °FScattered clouds.6 mph56%29.59 "Hg4 mi
5:00 pm91 °FScattered clouds.5 mph59%29.62 "Hg4 mi
4:25 pm91 °FScattered clouds.No wind59%29.62 "Hg4 mi
3:55 pm90 °FScattered clouds.3 mph59%29.62 "Hg3 mi
3:25 pm90 °FScattered clouds.6 mph59%29.65 "Hg3 mi
2:55 pm90 °FScattered clouds.6 mph63%29.65 "Hg3 mi
2:25 pm90 °FScattered clouds.8 mph63%29.68 "Hg3 mi
1:55 pm90 °FScattered clouds.10 mph63%29.68 "Hg3 mi
1:25 pm88 °FScattered clouds.9 mph66%29.68 "Hg3 mi
12:25 pm88 °FScattered clouds.10 mph66%29.71 "Hg3 mi
11:55 am86 °FScattered clouds.12 mph70%29.71 "Hg3 mi
10:55 am86 °FScattered clouds.10 mph70%29.71 "Hg3 mi
10:25 am84 °FBroken clouds.10 mph74%29.74 "Hg3 mi
9:55 am84 °FBroken clouds.9 mph74%29.74 "Hg2 mi
9:25 am84 °FBroken clouds.10 mph74%29.74 "Hg2 mi
8:55 am84 °FScattered clouds.8 mph79%29.74 "Hg2 mi
8:25 am84 °FScattered clouds.6 mph79%29.71 "Hg2 mi
7:55 am82 °FScattered clouds.7 mph79%29.71 "Hg2 mi
6:59 am81 °FScattered clouds.6 mph84%29.71 "Hg2 mi
6:29 am81 °FScattered clouds.5 mph84%N/A2 mi
5:59 am81 °FPassing clouds.5 mph84%29.71 "Hg2 mi
5:29 am81 °FClear.5 mph84%29.71 "Hg2 mi
4:59 am81 °FClear.3 mph89%29.71 "Hg2 mi
4:29 am81 °FClear.7 mph89%N/A2 mi
Weather by CustomWeather, © 2017

See weather overviewHow to use our weather pages